Content
SEND FEEDBACK

Daily
Averages
Monthly
Summary
Czech Republic

BYSTRICE, CZECH REPUBLIC


Home > Europe > Czech Republic
Elevation: 4353 feet     Latitude: 49 33N     Longitude: 018 27E

WEATHER
 
SELECT A DAY
Number of Records: 308,956;   Date Range: 1/10/97 - 11/24/14
 
SHARE

PRINT THIS DATA

[ ← Previous Day ]
WEATHER ALMANAC - JANUARY 31, 2013
[ Next Day → ]
[ °C ]   °F
Weather ElementAverageHighLow
Temperature41.2 °F44.6 °F (12:00 pm)37.4 °F (2:30 am)
Dewpoint32.1 °F39.2 °F (12:30 am)30.2 °F (3:30 am)
Humidity69.8 %93 % (2:00 am)50 % (1:00 pm)
Barometer29.82 in29.94 in (1:00 pm)29.71 in (1:00 am)
Wind Speed16.1 mph25.3 mph (5:00 pm)
Weather ElementAverage
Visibility7.6 mi
Wind DirectionSW (223.3 °)

Weather ElementTotal
Precipitation---
Heating Degree Days24 (Base 65)
Averaged from 51 records on January 31, 2013
WEATHER CONDITIONS BREAKOUT
WIND DIRECTION BREAKOUT
WEATHER BY HOUR - JANUARY 31, 2013
[ °C ]   °F
Local TimeTemperatureDewpointHumidityBarometerVisibilityWind DirectionWind SpeedGust SpeedPrecipitationEventsConditions
12:30 AM42.8 °F39.2 °F87 %29.74 in6.2 miSSW (210°)15.0 mphPartly Cloudy
1:00 AM42.0 °F38.0 °F79 %29.78 in16.0 miSW (220°)15.7 mphRainLight Rain
1:00 AM42.8 °F37.4 °F81 %29.71 in6.2 miSW (220°)16.1 mphPartly Cloudy
1:30 AM41.0 °F37.4 °F87 %29.77 in6.2 miSW (230°)19.6 mphMostly Cloudy
2:00 AM39.2 °F37.4 °F93 %29.80 in6.2 miNNW (330°)5.8 mphPartly Cloudy
2:30 AM37.4 °F33.8 °F87 %29.83 inSW (230°)6.9 mphClear
3:00 AM39.2 °F33.8 °F81 %29.86 in6.2 miSW (230°)13.8 mphPartly Cloudy
3:30 AM42.8 °F30.2 °F61 %29.86 inWNW (290°)19.6 mphClear
4:00 AM37.4 °F30.2 °F75 %29.86 inSW (220°)9.2 mphClear
4:30 AM39.2 °F32.0 °F75 %29.86 inSSW (200°)9.2 mphClear
5:00 AM37.4 °F33.8 °F87 %29.86 in6.2 miSW (220°)10.4 mphScattered Clouds
5:30 AM39.2 °F33.8 °F81 %29.86 in6.2 miSSW (200°)13.8 mphPartly Cloudy
6:00 AM39.2 °F33.8 °F81 %29.83 in6.2 miSW (220°)18.4 mphScattered Clouds
6:30 AM39.2 °F32.0 °F75 %29.83 in6.2 miSW (230°)18.4 mphMostly Cloudy
7:00 AM39.0 °F32.0 °F67 %29.88 in22.0 miSW (220°)15.7 mphPartly Cloudy
7:00 AM39.2 °F32.0 °F75 %29.83 in6.2 miSW (220°)15.0 mphScattered Clouds
7:30 AM39.2 °F32.0 °F75 %29.86 in6.2 miSW (220°)13.8 mphPartly Cloudy
8:00 AM39.2 °F32.0 °F75 %29.86 in6.2 miSW (220°)12.7 mphScattered Clouds
8:30 AM39.2 °F32.0 °F75 %29.86 in6.2 miSW (220°)11.5 mphPartly Cloudy
9:00 AM41.0 °F32.0 °F70 %29.86 in6.2 miSW (220°)11.5 mphMostly Cloudy
9:30 AM41.0 °F32.0 °F70 %29.89 in6.2 miSW (220°)16.1 mphMostly Cloudy
10:00 AM41.0 °F32.0 °F70 %29.89 in6.2 miSW (220°)12.7 mphMostly Cloudy
10:30 AM41.0 °F30.2 °F65 %29.92 in6.2 miSW (220°)18.4 mphMostly Cloudy
11:00 AM41.0 °F30.2 °F65 %29.92 in6.2 miSW (220°)15.0 mphMostly Cloudy
11:30 AM42.8 °F30.2 °F61 %29.92 in6.2 miSW (230°)16.1 mphMostly Cloudy
12:00 PM44.6 °F32.0 °F61 %29.92 in6.2 miSW (230°)13.8 mphMostly Cloudy
12:30 PM44.6 °F32.0 °F61 %29.92 in6.2 miWSW (240°)17.3 mphMostly Cloudy
1:00 PM44.0 °F31.0 °F50 %29.94 in25.0 miSW (220°)15.7 mphMostly Cloudy
1:00 PM44.6 °F32.0 °F61 %29.89 in6.2 miSW (230°)15.0 mphMostly Cloudy
1:30 PM44.6 °F30.2 °F57 %29.89 in6.2 miSSW (210°)17.3 mphMostly Cloudy
2:00 PM44.6 °F30.2 °F57 %29.89 in6.2 miSW (220°)16.1 mphPartly Cloudy
2:30 PM44.6 °F30.2 °F57 %29.86 in6.2 miSSW (210°)18.4 mphPartly Cloudy
3:00 PM42.8 °F30.2 °F61 %29.86 in6.2 miSSW (210°)17.3 mphPartly Cloudy
3:30 PM42.8 °F30.2 °F61 %29.83 inSSW (200°)13.8 mphClear
4:00 PM42.8 °F30.2 °F61 %29.83 inSSW (210°)18.4 mphClear
4:30 PM42.8 °F30.2 °F61 %29.80 inSSW (210°)18.4 mphClear
5:00 PM42.8 °F30.2 °F61 %29.77 inSW (220°)25.3 mphClear
5:30 PM41.0 °F30.2 °F65 %29.80 inSW (220°)17.3 mphClear
6:00 PM41.0 °F32.0 °F70 %29.77 inSW (220°)20.7 mphClear
6:30 PM41.0 °F30.2 °F65 %29.77 inSW (220°)20.7 mphClear
7:00 PM41.0 °F31.0 °F56 %29.80 in12.0 miSW (220°)22.4 mphOvercast
7:00 PM41.0 °F30.2 °F65 %29.74 inSW (220°)24.2 mphClear
7:30 PM41.0 °F30.2 °F65 %29.74 inSW (220°)15.0 mphClear
8:00 PM42.8 °F30.2 °F61 %29.74 inSW (220°)15.0 mphClear
8:30 PM41.0 °F30.2 °F65 %29.74 in6.2 miSW (220°)21.9 mphPartly Cloudy
9:00 PM41.0 °F32.0 °F70 %29.74 in6.2 miSW (230°)23.0 mphScattered Clouds
9:30 PM41.0 °F32.0 °F70 %29.74 in6.2 miSW (230°)16.1 mphPartly Cloudy
10:00 PM39.2 °F32.0 °F75 %29.74 in6.2 miSW (220°)17.3 mphPartly Cloudy
10:30 PM41.0 °F33.8 °F76 %29.74 in6.2 miSW (230°)17.3 mphRainLight Rain
11:00 PM41.0 °F33.8 °F76 %29.74 in6.2 miSW (220°)17.3 mphScattered Clouds
11:30 PM39.2 °F32.0 °F75 %29.71 inSSW (210°)17.3 mphClear
Hourly data recorded from LKMT, located miles away from Bystrice, Czech Republic







STORIES FROM OUR PARTNERS